Location: Chiroubles
(46.1812°N, 4.6660°E)
Time: 03:05:26
(UTC+00:00)

Tiros 1 - Pass Details

Date: 02 December 2020
Orbit: 630 x 663 km, 48.4° (Epoch: 16 January)

Event Time Altitude Azimuth Distance (km) Brightness Sun altitude
Rises 19:52:11 0° 287° (WNW) 2,985 11.4 -39.9°
Reaches altitude 10° 19:54:50 10° 275° (W) 2,066 10.4 -40.4°
Enters shadow 19:55:12 12° 273° (W) 1,951 10.2 -40.5°
